Regional Weather Roundup
Issued by NWS

Home | Current Version | Previous Version | Text Only | Print | Product List | Glossary On
Versions: 1 2 3 4 5 6 7 8 9 10 11 12 13 14 15 16 17 18 19 20 21 22 23 24 25 26 27 28 29 30 31 32 33 34 35 36 37 38 39 40 41 42 43 44 45 46 47 48 49 50
000
ASUS45 KBOU 162207
RWRCO

WEATHER ROUNDUP FOR COLORADO
NATIONAL WEATHER SERVICE DENVER/BOULDER CO
300 PM MST TUE DEC 16 2014

NOTE: "FAIR" INDICATES FEW OR NO CLOUDS BELOW 12000 FEET WITH NO
SIGNIFICANT WEATHER AND/OR OBSTRUCTIONS TO VISIBILITY.

COZ001>005-013-030-031-162300-
...NORTHWEST COLORADO...

CITY           SKY/WX    TMP DP  RH WIND       PRES   REMARKS
CRAIG          PTSUNNY   27  23  85 SW6       30.04S WCI  20
HAYDEN         PTSUNNY   28  21  74 NE9       30.02F WCI  20
MEEKER         PTSUNNY   28  23  81 SW3       30.03S
MOUNT WERNER   NOT AVBL
STEAMBOAT SPGS PTSUNNY   27  21  79 SE5       30.04S WCI  21
WALDEN         CLOUDY    23  18  80 CALM      30.04F
$$

COZ006>008-011-162300-
...WEST CENTRAL VALLEYS...

CITY           SKY/WX    TMP DP  RH WIND       PRES   REMARKS
GRAND JUNCTION MOSUNNY   42  27  55 N5        30.06R
MONTROSE       PTSUNNY   42  26  53 W3        30.06S
EAGLE          MOSUNNY   25  19  80 CALM      30.14S
RIFLE          MOSUNNY   36  24  62 CALM      30.06F
DELTA          CLOUDY    47  29  50 CALM      30.05S
NUCLA          CLOUDY    37  27  65 NW5       30.11R
$$

COZ017>023-064>068-162300-
...SOUTHWEST COLORADO...

CITY           SKY/WX    TMP DP  RH WIND       PRES   REMARKS
DURANGO        CLOUDY    40  21  46 E6        30.11S
CORTEZ         SUNNY     46  24  42 SW8       30.07S
PAGOSA SPRINGS CLOUDY    39  22  50 CALM      30.13S
TELLURIDE      CLOUDY    37  19  48 SE9       30.10R
WOLF CREEK PAS CLOUDY    19  16  86 MISG      30.15S
$$

COZ009-010-012-014-032>034-037-058>063-162300-
...CENTRAL COLORADO...

CITY           SKY/WX    TMP DP  RH WIND       PRES   REMARKS
ASPEN          PTSUNNY   30  22  72 NW3       30.05S
BUENA VISTA    CLOUDY    44  13  28 SE13      30.03F
COPPER MTN     LGT SNOW  30  18  59 S13G23    30.10S WCI  20
BERTHOUD PASS  SNOW      19  14  79 MISG      30.11S VSB<1/4
COTTONWOOD PAS MOSUNNY   36  12  38 E3        30.06S
GUNNISON       MOSUNNY   28  16  59 SW3       30.11S
KREMMLING      MOSUNNY   19  12  73 CALM      30.12S
LEADVILLE      CLOUDY    31  16  54 S7        30.04S WCI  24
MONARCH PASS   PTSUNNY   27  18  69 MISG      30.20S
SALIDA         MOSUNNY   44  17  32 S13G25    30.10S
SUNLIGHT       PTSUNNY   30  28  93 CALM      30.10S
WILKERSON PASS MOSUNNY   30  18  59 SW6       30.11F WCI  24
$$

COZ069>075-162300-
...SAN LUIS VALLEY/SANGRE DE CRISTO MOUNTAINS...

CITY           SKY/WX    TMP DP  RH WIND       PRES   REMARKS
ALAMOSA        SUNNY     39  15  37 CALM      30.09F
LA VETA PASS   MOSUNNY   34  16  47 S20G32    30.06F WCI  22
SAGUACHE       MOSUNNY   37  10  32 S10       30.10S
$$

COZ035-036-038>040-162300-
...NORTHERN COLORADO FRONT RANGE...

CITY           SKY/WX    TMP DP  RH WIND       PRES   REMARKS
DENVER INTL AP CLOUDY    30  21  69 N5        30.02F WCI  25
DMNS CITY PARK   N/A     34  20  55 N2G8      30.03S
AURORA         PTSUNNY   31  21  66 N6        30.02S WCI  25
FRONT RANGE AP NOT AVBL
ERIE MUNI ARPT   N/A     33  22  63 NW5       30.04S WCI  29
BOULDER MUN AP CLOUDY    32  23  69 CALM      30.03S
CENTENNIAL     PTSUNNY   33  22  63 N6        30.01S WCI  28
BROOMFIELD     CLOUDY    32  23  69 CALM      30.03S
FORT COLLINS   CLOUDY    34  19  55 NE5       30.06S WCI  30
LONGMONT       CLOUDY    37  22  55 N3        30.06S
$$

COZ041-046-047-076>085-087-088-162300-
...PIKES PEAK/PALMER DIVIDE AND SOUTHERN FOOTHILLS...

CITY           SKY/WX    TMP DP  RH WIND       PRES   REMARKS
COLO. SPRINGS  MOSUNNY   34  17  50 S3        30.05F
A. F. ACADEMY  SUNNY     37  18  46 S7        30.02F
ELLICOTT       NOT AVBL
FALCON         MOSUNNY   37  15  39 SW3       30.03F
FORT CARSON    MOSUNNY   34  18  51 NE2       30.03F
LIMON          CLOUDY    31  18  58 S15       30.05S WCI  20
MONUMENT HILL  PTSUNNY   37  23  56 SW6       29.99S
TRINIDAD       CLOUDY    44  24  45 NE6       30.03S
$$

COZ042>045-048>051-090-091-162300-
...NORTHEAST COLORADO...

CITY           SKY/WX    TMP DP  RH WIND       PRES   REMARKS
GREELEY ARPT   CLOUDY    28  18  64 N6        30.06R WCI  22
AKRON          CLOUDY    30  24  78 SE13      30.07S WCI  20
BURLINGTON     CLOUDY    33  23  66 S6        30.12F WCI  28
WRAY           PTSUNNY   26  24  89 E6        30.15F WCI  20
STERLING       CLOUDY    27  21  80 NE6       30.09R WCI  20
HOLYOKE        NOT AVBL
FORT MORGAN    CLOUDY    25  19  79 N9        30.07S WCI  16
$$

COZ086-089-092>099-162300-
...SOUTHEAST COLORADO...

CITY           SKY/WX    TMP DP  RH WIND       PRES   REMARKS
PUEBLO         MOSUNNY   38  20  48 E7        30.05F
LA JUNTA       CLOUDY    35  27  72 E6        30.08F WCI  30
LAMAR          CLOUDY    39  24  55 SE13      30.10F
SPRINGFIELD      N/A     45  26  47 S20       30.08F
$$



USA.gov is the U.S. government's official web portal to all federal, state and local government web resources and services.